Tracking 18796 objects as of 20-September-2017
HD Live streaming from Space Station
objects crossing your sky now

ORBCOMM FM 107

Track ORBCOMM FM 107 now!
10-day predictions
ORBCOMM FM 107 is classified as:


NORAD ID: 40087
Int'l Code: 2014-040B
Perigee: 716.3 km
Apogee: 719.2 km
Inclination: 47.0 °
Period: 99.0 minutes
Semi major axis: 7088 km
RCS: Unknown
Launch date: July 14, 2014
Source: United States (US)
Launch site: AIR FORCE EASTERN TEST RANGE (AFETR)
aabbcc
Your satellite tracking list
Your tracking list is empty





NASA's NSSDC Master Catalog

Two Line Element Set (TLE):
1 40087U 14040B   17262.72934038 +.00000024 +00000-0 +43839-4 0  9999
2 40087 047.0078 351.0383 0002043 317.9518 042.1209 14.54621900169324
Source of the keplerian elements: AFSPC